Location: Piotrkow Trybunalski
(51.4000°N, 19.6830°E)
Time: 22:28:24
(UTC+02:00)

KKS-1 - Visible Passes

Search period start: 30 March 2023 00:00
Search period end: 09 April 2023 00:00
Orbit: 632 x 646 km, 98.2° (Epoch: 30 March)

Date Brightness Start Highest point End Pass type
(mag) Time Alt. Az. Time Alt. Az. Time Alt. Az.
30 Mar ? 00:45:48 10° N 00:47:33 18° NNW 00:47:33 18° NNW visible
30 Mar ? 23:31:51 10° NNE 23:33:36 24° NNE 23:33:36 24° NNE visible
31 Mar ? 01:09:43 10° NNW 01:11:10 14° NW 01:11:10 14° NW visible
31 Mar ? 22:19:22 10° NE 22:19:38 11° NE 22:19:38 11° NE visible
31 Mar ? 23:55:09 10° N 23:57:13 26° N 23:57:13 26° N visible
01 Apr ? 22:42:07 10° NNE 22:43:15 16° NE 22:43:15 16° NE visible
02 Apr ? 00:18:35 10° N 00:20:49 25° NNW 00:20:49 25° NNW visible
02 Apr ? 23:05:07 10° NNE 23:06:51 23° NNE 23:06:51 23° NNE visible
03 Apr ? 00:42:10 10° N 00:44:25 20° NW 00:44:25 20° NW visible
03 Apr ? 23:28:16 10° NNE 23:30:27 29° NNE 23:30:27 29° NNE visible
04 Apr ? 01:05:59 10° NNW 01:08:01 15° NW 01:08:01 15° NW visible
04 Apr ? 22:15:54 10° NE 22:16:28 12° NE 22:16:28 12° NE visible
04 Apr ? 23:51:32 10° N 23:54:02 32° N 23:54:02 32° N visible
05 Apr ? 01:30:42 10° NW 01:31:28 10° NW 01:31:36 10° NW visible
05 Apr ? 22:38:34 10° NNE 22:40:03 18° NE 22:40:03 18° NE visible
06 Apr ? 00:14:55 10° N 00:17:37 30° NNW 00:17:37 30° NNW visible
06 Apr ? 23:01:29 10° NNE 23:03:37 26° NE 23:03:37 26° NE visible
07 Apr ? 00:38:27 10° N 00:41:12 23° NW 00:41:12 23° NW visible
07 Apr ? 23:24:36 10° NNE 23:27:11 35° NNE 23:27:11 35° NNE visible
08 Apr ? 01:02:11 10° NNW 01:04:46 17° NW 01:04:46 17° NW visible
08 Apr ? 22:12:21 10° NE 22:13:11 13° ENE 22:13:11 13° ENE visible
08 Apr ? 23:47:49 10° N 23:50:46 40° N 23:50:46 40° N visible
